Weather History for Bozeman, MT

Change the Weather History Date:

Thursday, May 2, 2013

  Actual Average Record
Temperature  
Mean Temperature 41 °F 50 °F  
Max Temperature 64 °F 64 °F 85 °F (1944)
Min Temperature 18 °F 35 °F 18 °F (1954)
Degree Days  
Heating Degree Days 24    
Month to date heating degree days 53  
Since 1 July heating degree days 7512  
Cooling Degree Days 0    
Month to date cooling degree days 0  
Year to date cooling degree days 0  
Moisture  
Dew Point 16 °F    
Average Humidity 46    
Maximum Humidity 77    
Minimum Humidity 14    
Precipitation  
Precipitation 0.00 in 0.07 in 0.44 in (1948)
Month to date precipitation 0.05 0.13  
Year to date precipitation 1.24 3.58  
Snow  
Snow 0.00 in 0.20 in 4.00 in (1948)
Month to date snowfall 1.8 0.3  
Since 1 July snowfall 24.6 37.8  
Snow Depth 0.00 in    
Sea Level Pressure  
Sea Level Pressure 30.52 in    
Wind  
Wind Speed 4 mph (ESE)    
Max Wind Speed 12 mph    
Max Gust Speed 18 mph    
Visibility 10 miles    
Events      
T = Trace of Precipitation, MM = Missing Value Source: NWS Daily Summary

Daily Weather History Graph

Daily Weather History Graph

Search for Another Location

Airport:

Trip Planner

Search our weather history database for the weather conditions in past years. The results will help you decide how hot, cold, wet, or windy it might be!

Date:

Astronomy

May. 02, 2013 Rise Set
Actual Time 6:10 AM MDT 8:33 PM MDT
Civil Twilight 5:37 AM MDT 9:07 PM MDT
Nautical Twilight 4:55 AM MDT 9:48 PM MDT
Astronomical Twilight 4:09 AM MDT 10:35 PM MDT
Moon 2:22 AM MDT 1:05 PM MDT
Length of Visible Light 15h 30m
Length of Day
14h 23m
Waning Gibbous, 47% of the Moon is Illuminated
May 2
Waning Gibbous
May 9
New
May 17
First Quarter
May 24
Full
May 31
Last Quarter

Hourly Weather History & Observations

Time (MDT) Temp. Windchill Dew Point Humidity Pressure Visibility Wind Dir Wind Speed Gust Speed Precip Events Conditions
12:56 AM 26.1 °F 19.4 °F 16.0 °F 66% 30.70 in 10.0 mi SE 5.8 mph - N/A   Clear
1:56 AM 21.0 °F 10.6 °F 15.1 °F 78% 30.71 in 10.0 mi SE 9.2 mph - N/A   Clear
2:56 AM 23.0 °F 13.9 °F 16.0 °F 74% 30.69 in 10.0 mi SSE 8.1 mph - N/A   Clear
3:56 AM 21.0 °F 11.4 °F 14.0 °F 74% 30.71 in 10.0 mi SSE 8.1 mph - N/A   Clear
4:56 AM 19.9 °F - 14.0 °F 78% 30.71 in 10.0 mi Calm Calm - N/A   Clear
5:56 AM 19.9 °F - 14.0 °F 78% 30.71 in 10.0 mi Calm Calm - N/A   Clear
6:56 AM 21.9 °F 14.5 °F 16.0 °F 78% 30.71 in 10.0 mi SE 5.8 mph - N/A   Clear
7:56 AM 30.0 °F - 19.9 °F 66% 30.69 in 10.0 mi Calm Calm - N/A   Clear
8:56 AM 37.0 °F - 19.9 °F 50% 30.67 in 10.0 mi Calm Calm - N/A   Clear
9:56 AM 42.1 °F - 21.0 °F 43% 30.64 in 10.0 mi Calm Calm - N/A   Clear
10:56 AM 46.9 °F - 15.1 °F 28% 30.62 in 10.0 mi Calm Calm - N/A   Clear
11:56 AM 52.0 °F - 16.0 °F 24% 30.58 in 10.0 mi NE 3.5 mph - N/A   Clear
12:56 PM 53.1 °F - 19.0 °F 26% 30.54 in 10.0 mi North 4.6 mph - N/A   Clear
1:56 PM 57.9 °F - 12.9 °F 17% 30.50 in 10.0 mi NE 6.9 mph - N/A   Clear
2:56 PM 59.0 °F - 12.0 °F 16% 30.47 in 10.0 mi Variable 4.6 mph - N/A   Clear
3:56 PM 62.1 °F - 12.0 °F 14% 30.42 in 10.0 mi Variable 4.6 mph - N/A   Clear
4:56 PM 62.1 °F - 12.9 °F 15% 30.38 in 10.0 mi NE 8.1 mph - N/A   Clear
5:56 PM 63.0 °F - 12.9 °F 14% 30.35 in 10.0 mi ESE 5.8 mph - N/A   Clear
6:56 PM 63.0 °F - 12.9 °F 14% 30.32 in 10.0 mi NE 3.5 mph - N/A   Clear
7:56 PM 57.9 °F - 19.9 °F 23% 30.30 in 10.0 mi East 4.6 mph - N/A   Clear
8:56 PM 54.0 °F - 14.0 °F 21% 30.27 in 10.0 mi ESE 5.8 mph - N/A   Clear
9:56 PM 46.9 °F - 19.0 °F 33% 30.29 in 10.0 mi South 9.2 mph - N/A   Clear
10:56 PM 41.0 °F 39.0 °F 19.9 °F 43% 30.30 in 10.0 mi South 3.5 mph - N/A   Clear
11:56 PM 44.1 °F - 19.9 °F 38% 30.28 in 10.0 mi Calm Calm - N/A   Mostly Cloudy